GW2923 Weather Reports


Display with metric or nautical units.
time (UTC)temp
F
wind
direction
speed
MPH
gust
MPH
rain 1hr
in
rain 24hr
in
rain mn
in
humidity
%
barometer
mb
20260508164031 54 269 5.0 10.0 0.00 0.00 0.00 33 1026.1
20260508163531 54 268 6.0 10.0 0.00 0.00 0.00 34 1026.0
20260508163043 54 268 4.0 10.0 0.00 0.00 0.00 32 1026.1
20260508162530 54 260 4.0 11.0 0.00 0.00 0.00 32 1026.1
20260508162032 54 301 6.0 11.0 0.00 0.00 0.00 32 1026.0
20260508161542 55 328 1.0 9.0 0.00 0.00 0.00 32 1025.9
20260508161034 55 319 4.0 9.0 0.00 0.00 0.00 32 1026.0
20260508160533 55 306 3.0 10.0 0.00 0.00 0.00 31 1025.9
20260508160041 55 285 4.0 10.0 0.00 0.00 0.00 30 1025.9
20260508155530 55 288 3.0 10.0 0.00 0.00 0.00 31 1025.9
20260508155029 55 292 4.0 9.0 0.00 0.00 0.00 29 1025.9
20260508154607 55 311 3.0 9.0 0.00 0.00 0.00 32 1025.9
20260508154033 55 285 3.0 9.0 0.00 0.00 0.00 30 1026.0
20260508153530 55 289 4.0 11.0 0.00 0.00 0.00 29 1026.0
20260508153039 55 305 6.0 11.0 0.00 0.00 0.00 31 1026.0
20260508152531 56 293 6.0 11.0 0.00 0.00 0.00 29 1026.0
20260508152029 56 254 4.0 10.0 0.00 0.00 0.00 29 1026.0
20260508151543 56 277 4.0 10.0 0.00 0.00 0.00 33 1026.0
20260508151033 55 226 5.0 10.0 0.00 0.00 0.00 32 1026.0
20260508150531 55 241 2.0 10.0 0.00 0.00 0.00 35 1025.9
20260508150043 55 267 5.0 11.0 0.00 0.00 0.00 29 1025.9
20260508145532 56 266 6.0 12.0 0.00 0.00 0.00 30 1025.9
20260508145030 56 315 5.0 12.0 0.00 0.00 0.00 29 1025.8
20260508144546 56 290 5.0 10.0 0.00 0.00 0.00 31 1025.8
20260508144031 56 262 4.0 10.0 0.00 0.00 0.00 27 1025.8
20260508143529 56 193 3.0 8.0 0.00 0.00 0.00 28 1025.8
20260508143037 56 222 4.0 8.0 0.00 0.00 0.00 32 1025.9
20260508142530 56 288 4.0 10.0 0.00 0.00 0.00 27 1025.9
20260508142029 56 250 6.0 12.0 0.00 0.00 0.00 26 1025.9
20260508141546 56 218 6.0 12.0 0.00 0.00 0.00 25 1025.9
20260508141032 56 259 6.0 11.0 0.00 0.00 0.00 28 1025.9
20260508140530 56 257 6.0 11.0 0.00 0.00 0.00 28 1025.8
20260508140043 56 287 6.0 11.0 0.00 0.00 0.00 25 1025.9
20260508135529 56 261 3.0 12.0 0.00 0.00 0.00 26 1025.9
20260508135030 56 274 4.0 12.0 0.00 0.00 0.00 24 1025.9
20260508134556 56 324 6.0 14.0 0.00 0.00 0.00 27 1026.0
20260508134030 56 261 6.0 14.0 0.00 0.00 0.00 30 1026.0
20260508133531 57 253 8.0 14.0 0.00 0.00 0.00 28 1026.0
20260508133057 56 4 6.0 11.0 0.00 0.00 0.00 25 1026.1
20260508132530 55 251 1.0 9.0 0.00 0.00 0.00 24 1026.1
20260508132032 56 302 5.0 10.0 0.00 0.00 0.00 23 1026.1
20260508131549 56 357 2.0 10.0 0.00 0.00 0.00 24 1026.1
20260508131031 56 292 5.0 13.0 0.00 0.00 0.00 24 1026.2
20260508130531 56 310 6.0 13.0 0.00 0.00 0.00 25 1026.2
20260508130037 56 275 6.0 13.0 0.00 0.00 0.00 25 1026.2
20260508125531 57 255 8.0 12.0 0.00 0.00 0.00 29 1026.2
20260508125031 56 272 7.0 12.0 0.00 0.00 0.00 28 1026.2
20260508124538 57 257 8.0 12.0 0.00 0.00 0.00 27 1026.2
20260508124033 56 264 5.0 12.0 0.00 0.00 0.00 28 1026.1
20260508123531 56 259 7.0 12.0 0.00 0.00 0.00 27 1026.2
20260508123048 56 288 7.0 14.0 0.00 0.00 0.00 29 1026.2
20260508122534 56 251 6.0 14.0 0.00 0.00 0.00 31 1026.3
20260508122033 57 273 8.0 14.0 0.00 0.00 0.00 27 1026.1
20260508121543 56 230 8.0 14.0 0.00 0.00 0.00 30 1026.2
20260508121035 57 270 9.0 14.0 0.00 0.00 0.00 27 1026.2
20260508120534 57 225 7.0 13.0 0.00 0.00 0.00 27 1026.1
20260508120049 57 259 8.0 13.0 0.00 0.00 0.00 28 1026.2
20260508115536 56 292 9.0 16.0 0.00 0.00 0.00 29 1026.2
20260508115032 57 282 5.0 16.0 0.00 0.00 0.00 29 1026.2
20260508114542 55 243 4.0 10.0 0.00 0.00 0.00 31 1026.2
20260508114031 54 319 2.0 16.0 0.00 0.00 0.00 30 1026.3
20260508113534 56 359 6.0 16.0 0.00 0.00 0.00 29 1026.3
20260508113042 56 282 3.0 11.0 0.00 0.00 0.00 30 1026.2
20260508112533 56 293 7.0 12.0 0.00 0.00 0.00 28 1026.3
20260508112034 57 252 6.0 12.0 0.00 0.00 0.00 30 1026.3
20260508111541 55 233 6.0 12.0 0.00 0.00 0.00 38 1026.3
20260508111033 57 256 7.0 13.0 0.00 0.00 0.00 34 1026.3
20260508110533 56 274 8.0 17.0 0.00 0.00 0.00 31 1026.3
20260508110047 57 243 8.0 17.0 0.00 0.00 0.00 31 1026.3
20260508105533 56 279 8.0 16.0 0.00 0.00 0.00 32 1026.4
20260508105034 57 300 4.0 10.0 0.00 0.00 0.00 31 1026.3
20260508104543 56 276 5.0 13.0 0.00 0.00 0.00 29 1026.2
20260508104032 56 222 5.0 13.0 0.00 0.00 0.00 32 1026.3
20260508103535 56 288 7.0 12.0 0.00 0.00 0.00 34 1026.3
20260508103043 54 51 1.0 10.0 0.00 0.00 0.00 29 1026.2
20260508102534 55 343 3.0 14.0 0.00 0.00 0.00 30 1026.2
20260508102031 53 257 4.0 14.0 0.00 0.00 0.00 33 1026.2
20260508101545 53 314 5.0 11.0 0.00 0.00 0.00 33 1026.2
20260508101031 54 303 2.0 11.0 0.00 0.00 0.00 31 1026.1
20260508100531 55 263 4.0 11.0 0.00 0.00 0.00 28 1026.0
20260508095533 55 303 7.0 13.0 0.00 0.00 0.00 31 1026.1
20260508095032 54 280 9.0 13.0 0.00 0.00 0.00 33 1026.2
20260508094542 53 306 4.0 13.0 0.00 0.00 0.00 33 1026.1
20260508094032 54 331 5.0 13.0 0.00 0.00 0.00 33 1026.2
20260508093534 55 289 6.0 13.0 0.00 0.00 0.00 31 1026.1
20260508093041 54 297 5.0 12.0 0.00 0.00 0.00 30 1026.1
20260508092534 54 274 4.0 10.0 0.00 0.00 0.00 31 1026.2
20260508092032 52 267 5.0 13.0 0.00 0.00 0.00 32 1026.2
20260508091553 54 288 4.0 13.0 0.00 0.00 0.00 28 1026.2
20260508091035 55 319 8.0 13.0 0.00 0.00 0.00 30 1026.2
20260508090531 54 227 5.0 13.0 0.00 0.00 0.00 32 1026.0
20260508090108 54 251 7.0 14.0 0.00 0.00 0.00 31 1026.2
20260508085534 53 290 6.0 14.0 0.00 0.00 0.00 35 1026.2
20260508085032 51 280 6.0 13.0 0.00 0.00 0.00 35 1026.2
20260508084548 52 27 6.0 13.0 0.00 0.00 0.00 32 1026.2
20260508084033 54 1 6.0 13.0 0.00 0.00 0.00 32 1026.0
20260508083535 53 357 5.0 12.0 0.00 0.00 0.00 33 1026.0
20260508083041 52 338 2.0 14.0 0.00 0.00 0.00 37 1026.1
20260508082535 52 281 6.0 14.0 0.00 0.00 0.00 33 1026.0
20260508082033 52 315 3.0 11.0 0.00 0.00 0.00 33 1026.0
20260508081601 52 277 4.0 11.0 0.00 0.00 0.00 39 1026.0
20260508081034 52 299 5.0 12.0 0.00 0.00 0.00 36 1025.9
20260508080532 53 326 5.0 12.0 0.00 0.00 0.00 34 1026.0
20260508080051 53 283 5.0 14.0 0.00 0.00 0.00 30 1025.9
20260508075533 53 356 3.0 14.0 0.00 0.00 0.00 32 1025.8
20260508075033 52 324 5.0 12.0 0.00 0.00 0.00 34 1025.8
20260508074543 52 311 2.0 10.0 0.00 0.00 0.00 34 1025.8
20260508074033 51 263 4.0 10.0 0.00 0.00 0.00 35 1025.7
20260508073534 51 9 4.0 9.0 0.00 0.00 0.00 35 1025.7
20260508073052 51 9 3.0 9.0 0.00 0.00 0.00 41 1025.6
20260508072532 50 261 1.0 4.0 0.00 0.00 0.00 51 1025.5
20260508072034 49 0 0.0 6.0 0.00 0.00 0.00 52 1025.5
20260508071540 49 24 2.0 6.0 0.00 0.00 0.00 50 1025.6
20260508071031 50 286 3.0 6.0 0.00 0.00 0.00 53 1025.5
20260508070535 49 234 2.0 7.0 0.00 0.00 0.00 53 1025.3
20260508070046 48 265 4.0 7.0 0.00 0.00 0.00 54 1025.3
20260508065534 48 261 1.0 6.0 0.00 0.00 0.00 58 1025.3
20260508065034 47 285 2.0 6.0 0.00 0.00 0.00 60 1025.2
20260508064541 47 273 3.0 6.0 0.00 0.00 0.00 61 1025.2
20260508064038 47 0 2.0 4.0 0.00 0.00 0.00 65 1025.2
20260508063534 46 0 0.0 4.0 0.00 0.00 0.00 67 1025.1
20260508063039 46 272 2.0 4.0 0.00 0.00 0.00 67 1025.1
20260508062533 46 264 1.0 4.0 0.00 0.00 0.00 69 1025.1
20260508062034 45 303 2.0 4.0 0.00 0.00 0.00 72 1025.0
20260508061543 45 266 2.0 7.0 0.00 0.00 0.00 73 1024.9
20260508061033 44 222 2.0 7.0 0.00 0.00 0.00 74 1024.9
20260508060536 44 253 1.0 7.0 0.00 0.00 0.00 75 1024.9
20260508055531 43 236 2.0 6.0 0.00 0.00 0.00 77 1024.9
20260508055031 43 263 2.0 5.0 0.00 0.00 0.00 78 1024.8
20260508054543 42 230 3.0 5.0 0.00 0.00 0.00 79 1024.8
20260508054030 42 229 2.0 5.0 0.00 0.00 0.00 80 1024.7
20260508053530 41 272 2.0 5.0 0.00 0.00 0.00 82 1024.7
20260508053043 40 262 3.0 7.0 0.00 0.00 0.00 81 1024.7
20260508052537 40 251 4.0 7.0 0.00 0.00 0.00 82 1024.6
20260508052034 40 253 3.0 6.0 0.00 0.00 0.00 82 1024.5
20260508051556 39 270 3.0 6.0 0.00 0.00 0.00 83 1024.4
20260508051034 39 245 3.0 6.0 0.00 0.00 0.00 83 1024.4
20260508050534 39 239 3.0 6.0 0.00 0.00 0.00 83 1024.3
20260508050049 39 232 3.0 7.0 0.00 0.00 0.00 84 1024.3
20260508045534 39 283 2.0 7.0 0.00 0.00 0.00 85 1024.3
20260508045036 38 229 3.0 7.0 0.00 0.00 0.00 85 1024.2
20260508044549 38 252 3.0 6.0 0.00 0.00 0.00 86 1024.2
20260508044033 38 262 3.0 6.0 0.00 0.00 0.00 86 1024.2
20260508043537 38 253 2.0 7.0 0.00 0.00 0.00 87 1024.1
20260508043041 37 264 3.0 7.0 0.00 0.00 0.00 87 1024.0
20260508042535 37 254 3.0 7.0 0.00 0.00 0.00 88 1024.0
20260508042033 37 259 2.0 6.0 0.00 0.00 0.00 90 1023.9
20260508041541 36 230 1.0 5.0 0.00 0.00 0.00 92 1023.9
20260508041033 35 236 2.0 7.0 0.00 0.00 0.00 94 1023.8
20260508040534 34 249 3.0 7.0 0.00 0.00 0.00 95 1023.7
20260508040050 33 237 3.0 6.0 0.00 0.00 0.00 95 1023.6
20260508035535 30 212 2.0 4.0 0.00 0.00 0.00 94 1023.6
20260508035031 29 229 2.0 5.0 0.00 0.00 0.00 94 1023.6
20260508034550 27 243 2.0 5.0 0.00 0.00 0.00 93 1023.6
20260508034034 27 228 3.0 5.0 0.00 0.00 0.00 93 1023.5
20260508033534 26 211 1.0 3.0 0.00 0.00 0.00 92 1023.4
20260508033051 26 249 0.0 2.0 0.00 0.00 0.00 92 1023.4
20260508032537 25 220 0.0 2.0 0.00 0.00 0.00 92 1023.4
20260508032035 25 0 0.0 3.0 0.00 0.00 0.00 92 1023.2
20260508031544 25 232 1.0 3.0 0.00 0.00 0.00 91 1023.1
20260508031034 25 236 1.0 3.0 0.00 0.00 0.00 91 1023.2
20260508030534 24 226 1.0 4.0 0.00 0.00 0.00 91 1023.2
20260508030058 24 243 2.0 4.0 0.00 0.00 0.00 90 1023.1
20260508025533 24 239 1.0 3.0 0.00 0.00 0.00 90 1023.1
20260508025033 24 0 1.0 4.0 0.00 0.00 0.00 90 1023.0
20260508024615 24 220 1.0 4.0 0.00 0.00 0.00 90 1022.9
20260508024033 24 238 1.0 3.0 0.00 0.00 0.00 89 1022.8
20260508023532 24 228 0.0 1.0 0.00 0.00 0.00 89 1022.7
20260508023044 24 0 0.0 0.0 0.00 0.00 0.00 89 1022.7
20260508022531 24 0 0.0 0.0 0.00 0.00 0.00 89 1022.5
20260508022035 24 0 0.0 0.0 0.00 0.00 0.00 89 1022.6
20260508021555 24 0 0.0 0.0 0.00 0.00 0.00 89 1022.6
20260508021036 24 0 0.0 0.0 0.00 0.00 0.00 89 1022.6
20260508020534 24 0 0.0 0.0 0.00 0.00 0.00 89 1022.4
20260508020049 24 0 0.0 0.0 0.00 0.00 0.00 89 1022.5
20260508015534 24 0 0.0 0.0 0.00 0.00 0.00 89 1022.4
20260508015034 24 0 0.0 0.0 0.00 0.00 0.00 89 1022.4
20260508014548 24 0 0.0 0.0 0.00 0.00 0.00 89 1022.4
20260508014034 24 0 0.0 0.0 0.00 0.00 0.00 88 1022.3
20260508013533 24 0 0.0 0.0 0.00 0.00 0.00 88 1022.3
20260508013048 24 0 0.0 0.0 0.00 0.00 0.00 88 1022.3
20260508012533 24 0 0.0 0.0 0.00 0.00 0.00 88 1022.3
20260508012033 24 0 0.0 0.0 0.00 0.00 0.00 88 1022.2
20260508011547 24 0 0.0 1.0 0.00 0.00 0.00 88 1022.1
20260508011035 25 0 0.0 2.0 0.00 0.00 0.00 88 1022.1
20260508010535 25 0 0.0 2.0 0.00 0.00 0.00 88 1022.1
20260508010053 25 228 0.0 2.0 0.00 0.00 0.00 88 1022.0
20260508005535 25 0 0.0 2.0 0.00 0.00 0.00 87 1022.0
20260508005035 25 0 0.0 2.0 0.00 0.00 0.00 87 1022.0
20260508004554 25 0 0.0 2.0 0.00 0.00 0.00 87 1022.0
20260508004035 25 0 0.0 0.0 0.00 0.00 0.00 87 1022.0
20260508003534 25 0 0.0 0.0 0.00 0.00 0.00 87 1021.9
20260508003047 25 0 0.0 0.0 0.00 0.00 0.00 87 1021.9
20260508002533 25 0 0.0 0.0 0.00 0.00 0.00 87 1021.9
20260508002033 25 0 0.0 0.0 0.00 0.00 0.00 87 1021.9
20260508001550 25 0 0.0 0.0 0.00 0.00 0.00 86 1021.8
20260508001033 25 0 0.0 0.0 0.00 0.00 0.00 86 1021.7
20260508000534 25 0 0.0 0.0 0.00 0.00 0.00 85 1021.7
20260508000047 25 0 0.0 0.0 0.00 0.00 0.00 85 1021.6
20260507235531 25 0 0.0 0.0 0.00 0.00 0.00 85 1021.7
20260507235033 25 0 0.0 0.0 0.00 0.00 0.00 85 1021.6
20260507234542 25 0 0.0 0.0 0.00 0.00 0.00 85 1021.6
20260507234034 25 0 0.0 0.0 0.00 0.00 0.00 85 1021.5
20260507233533 25 0 0.0 0.0 0.00 0.00 0.00 85 1021.5
20260507233042 26 0 0.0 0.0 0.00 0.00 0.00 85 1021.5
20260507232534 26 0 0.0 0.0 0.00 0.00 0.00 84 1021.5
20260507232035 26 0 0.0 0.0 0.00 0.00 0.00 84 1021.4
20260507231543 26 0 0.0 0.0 0.00 0.00 0.00 84 1021.3
20260507231033 26 0 0.0 0.0 0.00 0.00 0.00 84 1021.2
20260507230533 26 0 0.0 0.0 0.00 0.00 0.00 84 1021.1
20260507230050 26 0 0.0 0.0 0.00 0.00 0.00 84 1021.2
20260507225534 26 0 0.0 0.0 0.00 0.00 0.00 84 1021.0
20260507225034 26 0 0.0 0.0 0.00 0.00 0.00 84 1020.9
20260507224547 27 0 0.0 0.0 0.00 0.00 0.00 84 1020.9
20260507224033 27 0 0.0 0.0 0.00 0.00 0.00 83 1020.9
20260507223533 27 0 0.0 0.0 0.00 0.00 0.00 83 1020.9
20260507223043 27 0 0.0 0.0 0.00 0.00 0.00 83 1020.8
20260507222534 27 0 0.0 0.0 0.00 0.00 0.00 83 1020.8
20260507222037 27 0 0.0 0.0 0.00 0.00 0.00 83 1020.7
20260507221544 27 0 0.0 0.0 0.00 0.00 0.00 83 1020.8
20260507221036 28 0 0.0 0.0 0.00 0.00 0.00 82 1020.7
20260507220538 28 0 0.0 0.0 0.00 0.00 0.00 81 1020.7
20260507220042 28 0 0.0 0.0 0.00 0.00 0.00 80 1020.7
20260507215534 28 0 0.0 0.0 0.00 0.00 0.00 80 1020.6
20260507215035 28 0 0.0 0.0 0.00 0.00 0.00 80 1020.5
20260507214549 28 0 0.0 0.0 0.00 0.00 0.00 79 1020.5
20260507214033 28 0 0.0 0.0 0.00 0.00 0.00 79 1020.2
20260507213533 29 0 0.0 0.0 0.00 0.00 0.00 78 1020.4
20260507213049 29 0 0.0 0.0 0.00 0.00 0.00 78 1020.3
20260507212534 29 0 0.0 0.0 0.00 0.00 0.00 79 1020.1
20260507212034 29 0 0.0 0.0 0.00 0.00 0.00 80 1020.0
20260507211545 29 0 0.0 0.0 0.00 0.00 0.00 79 1019.9
20260507211034 29 0 0.0 0.0 0.00 0.00 0.00 79 1019.9
20260507210533 30 0 0.0 0.0 0.00 0.00 0.00 78 1019.9
20260507210108 30 0 0.0 0.0 0.00 0.00 0.00 78 1019.8
20260507205534 30 0 0.0 0.0 0.00 0.00 0.00 77 1019.8
20260507205034 30 0 0.0 0.0 0.00 0.00 0.00 76 1019.7
20260507204546 30 0 0.0 0.0 0.00 0.00 0.00 77 1019.7
20260507204035 31 0 0.0 0.0 0.00 0.00 0.00 76 1019.6
20260507203535 31 0 0.0 0.0 0.00 0.00 0.00 76 1019.6
20260507203114 31 0 0.0 0.0 0.00 0.00 0.00 74 1019.6
20260507202537 31 0 0.0 0.0 0.00 0.00 0.00 74 1019.6
20260507202036 32 0 0.0 0.0 0.00 0.00 0.00 73 1019.5
20260507201538 32 0 0.0 0.0 0.00 0.00 0.00 72 1019.5
20260507201033 32 0 0.0 0.0 0.00 0.00 0.00 72 1019.4
20260507200533 33 0 0.0 0.0 0.00 0.00 0.00 71 1019.4
20260507200043 33 0 0.0 0.0 0.00 0.00 0.00 70 1019.3
20260507195541 34 0 0.0 0.0 0.00 0.00 0.00 68 1019.3
20260507195033 34 0 0.0 1.0 0.00 0.00 0.00 69 1019.2
20260507194538 35 0 0.0 2.0 0.00 0.00 0.00 69 1019.3
20260507194033 35 0 0.0 2.0 0.00 0.00 0.00 68 1019.2
20260507193532 35 266 0.0 2.0 0.00 0.00 0.00 67 1019.1
20260507193041 36 266 0.0 2.0 0.00 0.00 0.00 66 1019.1
20260507192534 37 0 0.0 2.0 0.00 0.00 0.00 63 1018.9
20260507192033 37 266 0.0 2.0 0.00 0.00 0.00 64 1018.9
20260507191550 38 0 0.0 2.0 0.00 0.00 0.00 64 1018.9
20260507191035 38 0 0.0 2.0 0.00 0.00 0.00 63 1018.8
20260507190532 38 0 0.0 3.0 0.00 0.00 0.00 63 1018.7
20260507190045 39 0 0.0 3.0 0.00 0.00 0.00 63 1018.7
20260507185531 39 0 1.0 3.0 0.00 0.00 0.00 64 1018.7
20260507185031 39 279 1.0 3.0 0.00 0.00 0.00 63 1018.6
20260507184542 39 320 0.0 3.0 0.00 0.00 0.00 63 1018.7
20260507184036 39 0 0.0 3.0 0.00 0.00 0.00 63 1018.6
20260507183534 40 0 0.0 3.0 0.00 0.00 0.00 62 1018.5
20260507183042 40 302 0.0 6.0 0.00 0.00 0.00 62 1018.4
20260507182536 41 0 1.0 6.0 0.00 0.00 0.00 60 1018.4
20260507182035 41 301 0.0 6.0 0.00 0.00 0.00 58 1018.3
20260507181542 42 285 1.0 6.0 0.00 0.00 0.00 56 1018.2
20260507181033 42 316 1.0 8.0 0.00 0.00 0.00 55 1018.2
20260507180532 42 320 2.0 8.0 0.00 0.00 0.00 56 1018.2
20260507180041 43 322 3.0 6.0 0.00 0.00 0.00 55 1018.1
20260507175538 43 357 3.0 7.0 0.00 0.00 0.00 53 1018.0
20260507175034 43 4 1.0 7.0 0.00 0.00 0.00 53 1017.9
20260507174547 44 280 2.0 7.0 0.00 0.00 0.00 51 1017.8
20260507174034 44 330 3.0 8.0 0.00 0.00 0.00 49 1017.8
20260507173532 44 0 2.0 10.0 0.00 0.00 0.00 47 1017.8
20260507173110 44 4 3.0 10.0 0.00 0.00 0.00 49 1017.7
20260507172530 45 247 3.0 9.0 0.00 0.00 0.00 49 1017.7
20260507172031 45 328 1.0 8.0 0.00 0.00 0.00 48 1017.6
20260507171543 45 259 2.0 12.0 0.00 0.00 0.00 47 1017.6
20260507171032 45 332 2.0 12.0 0.00 0.00 0.00 46 1017.5
20260507170531 46 311 3.0 12.0 0.00 0.00 0.00 44 1017.4
20260507170042 46 305 3.0 11.0 0.00 0.00 0.00 44 1017.4
20260507165530 46 334 2.0 11.0 0.00 0.00 0.00 44 1017.3
20260507165029 46 288 3.0 11.0 0.00 0.00 0.00 44 1017.2
20260507164539 46 328 6.0 11.0 0.00 0.00 0.00 44 1017.2